Hourly Data Report for November 02, 2019

All times are specified in Local Standard Time (LST). Add 1 hour to adjust for Daylight Saving Time where and when it is observed.

WOODSTOCK NEWBRIDGE
NEW BRUNSWICK
Current Station Operator: ECCC - MSC

46°09'08.000" N
67°32'34.000" W
154.00 m
8105603
71606
EWD

Download Data

Hourly Data (November 2019)
Hourly Data Report for November 2, 2019
TIME Temp Definition
°C
Dew Point Definition
°C
Rel Hum Definition
%
Wind Dir Definition
10's deg

Wind Spd Definition
km/h
Visibility Definition
km
Stn Press Definition
kPa
Hmdx Definition


Wind Chill Definition


Weather Definition


00:00 3.4 -4.9 54 26 19   99.81     LegendNANA
01:00 2.8 -5.0 56 27 15   99.86     LegendNANA
02:00 2.4 -5.1 58 27 12   99.96     LegendNANA
03:00 2.0 -4.7 61 27 10   100.00     LegendNANA
04:00 1.6 -4.5 64 27 8   100.10     LegendNANA
05:00 1.6 -4.5 64 28 6   100.17     LegendNANA
06:00 0.4 -4.6 69 27 7   LegendMM     LegendNANA
07:00 0.0 -4.2 74 26 3   100.35   -1 LegendNANA
08:00 0.4 -4.3 71 30 4   100.41     LegendNANA
09:00 2.0 -4.7 61 29 9   100.45     LegendNANA
10:00 2.6 -5.5 55 30 10   100.48     LegendNANA
11:00 3.0 -5.1 55 32 8   100.52     LegendNANA
12:00 3.7 -5.2 52 29 8   100.45     LegendNANA
13:00 4.6 -4.7 51 26 5   100.36     LegendNANA
14:00 5.0 -3.8 53 31 5   100.34     LegendNANA
15:00 5.5 -4.5 48 33 4   100.27     LegendNANA
16:00 6.1 -4.4 47 19 5   100.22     LegendNANA
17:00 4.8 -3.7 54 9 3   100.20     LegendNANA
18:00 0.4 -3.3 76   0   100.22     LegendNANA
19:00 -0.9 -3.0 86   0   100.19     LegendNANA
20:00 -1.6 -3.2 89 0 1   100.16   -2 LegendNANA
21:00 -2.1 -3.5 90 11 3   100.10   -3 LegendNANA
22:00 -0.2 -3.0 81 13 4   100.07   -1 LegendNANA
23:00 -2.3 -3.7 90 9 2   100.00   -3 LegendNANA

Notes on Data Quality.

Legend

  • E = Estimated
  • M = Missing
  • NA = Not Available
Date modified: